Flag for United Kingdom Weather past 2 weeks in Plymouth, England, United Kingdom

Now
46 °F

Fog.


Feels Like: 44 °F
Forecast: N/A
Wind: 6 mph from South

Location: Exeter Airport

Current Time: Mar 27, 2015 at 10:38:30 PM

Latest Report: Mar 27, 2015 at 9:50 PM


Visibility: 1 mi

Pressure: 30.09 "Hg

Humidity: 100%

Dew point: 46 °F

Location of PlymouthLocation

Historic Weather in Plymouth — Graph

°F

Plymouth temperature yesterday

Maximum temperature yesterday: 54 °F (at 1:50 PM)
Minimum temperature yesterday: 39 °F (at 11:20 PM)
Average temperature yesterday: 48 °F

Past Weeks' High & Low Weather Summary

 TemperatureHumidityPressure
High54 °F (Mar 17, 1:20 PM)100% (Mar 12, 9:20 PM)30.54 "Hg (Mar 12, 9:20 PM)
Low30 °F (Mar 19, 2:50 AM)50% (Mar 25, 1:20 PM)29.53 "Hg (Mar 26, 6:20 AM)
Average43 °F79%30.20 "Hg
* Reported Mar 12 8:20 PM — Mar 27 8:50 PM, Plymouth, Weather by CustomWeather, © 2015

Note: Actual official high and low records may vary slightly from our data, if they occured in-between our weather recording intervals... More about our weather records

Advertising

Plymouth weather history for previous 24 hours

 ConditionsComfort  
Time TempWeatherWind HumidityBarometerVisibility
8:50 PM
Fri, Mar 27
46 °FPassing clouds.7 mph100%30.09 "Hg4 mi
8:20 PM46 °FFog.10 mph93%30.09 "Hg3 mi
7:50 PM46 °FFog.10 mph93%30.09 "Hg2 mi
7:20 PM46 °FDrizzle. Fog.9 mph93%30.09 "Hg2 mi
6:50 PM46 °FDrizzle. Fog.9 mph93%30.09 "Hg2 mi
6:20 PM46 °FDrizzle. Fog.9 mph93%30.09 "Hg2 mi
5:50 PM46 °FDrizzle. Fog.10 mph93%30.09 "Hg3 mi
5:20 PM46 °FDrizzle. Partly sunny.12 mph93%30.09 "HgN/A
4:50 PM46 °FDrizzle. Broken clouds.12 mph93%30.09 "HgN/A
4:20 PM48 °FPartly sunny.12 mph87%30.09 "HgN/A
3:50 PM48 °FPartly sunny.7 mph87%30.12 "HgN/A
3:20 PM50 °FDrizzle. Partly sunny.8 mph76%30.12 "HgN/A
1:50 PM50 °FScattered clouds.10 mph76%30.12 "HgN/A
1:20 PM50 °FScattered clouds.9 mph76%30.12 "HgN/A
12:50 PM50 °FScattered clouds.12 mph82%30.12 "HgN/A
12:20 PM48 °FSprinkles. Scattered clouds.10 mph82%30.12 "HgN/A
11:50 AM48 °FSprinkles. Passing clouds.9 mph76%30.15 "HgN/A
11:20 AM48 °FPassing clouds.8 mph76%30.15 "HgN/A
10:50 AM48 °FPassing clouds.6 mph76%30.15 "HgN/A
10:20 AM46 °FPassing clouds.5 mph82%30.15 "HgN/A
9:50 AM45 °FPassing clouds.3 mph87%30.15 "HgN/A
9:20 AM43 °FPassing clouds.1 mph93%30.15 "HgN/A
8:50 AM41 °FPassing clouds.2 mph93%30.15 "HgN/A
8:20 AM37 °FPassing clouds.1 mph100%30.15 "HgN/A
7:50 AM36 °FSunny.2 mph100%30.15 "Hg10 mi
7:20 AM34 °FSunny.2 mph93%30.12 "Hg10 mi
6:50 AM32 °FSunny.2 mph100%30.12 "Hg10 mi
6:20 AM30 °FFog.No wind100%30.12 "HgN/A
5:50 AM30 °FFog.3 mph100%30.12 "HgN/A
1:20 AM37 °FClear.3 mph93%30.09 "Hg10 mi
12:50 AM37 °FClear.1 mph93%30.07 "Hg10 mi
12:20 AM39 °FClear.3 mph87%30.07 "Hg10 mi
11:50 PM
Thu, Mar 26
39 °FClear.6 mph87%30.07 "Hg10 mi
11:20 PM39 °FClear.7 mph87%30.07 "Hg10 mi
10:50 PM41 °FClear.7 mph87%30.04 "Hg10 mi
10:20 PM43 °FClear.8 mph81%30.04 "Hg10 mi
Weather by CustomWeather, © 2015

See weather overviewHow to use our weather pages